Lawrenceville, GA

4:45 PM EST on December 14, 2019 (GMT -0500)
Gwinnett County-Briscoe

Weather History for KLZU - September, 2019

Change the Weather History Date:

Sunday, September 8, 2019

  Actual Average (KWDR) Record (KWDR)
Temperature  
Mean Temperature 78 °F -  
Max Temperature 93 °F 84 °F 95 °F (1990)
Min Temperature 63 °F 62 °F 52 °F (1972)
Cooling Degree Days 13    
Growing Degree Days 28 (Base 50)    
Moisture  
Dew Point 63 °F    
Average Humidity 66    
Maximum Humidity 100    
Minimum Humidity 30    
Precipitation  
Precipitation 0.00 in - - ()
Sea Level Pressure  
Sea Level Pressure 30.03 in    
Wind  
Wind Speed 1 mph (East)    
Max Wind Speed 9 mph    
Max Gust Speed -    
Visibility 10 miles    
Events      
Averages and records for this station are not official NWS values.
T = Trace of Precipitation, MM = Missing Value Source: NWS Daily Summary

Daily Weather History Graph

Daily Weather History Graph

Search for Another Location

Airport or City:

Astronomy

Sep. 08, 2019 Rise Set
Actual Time 7:14 AM EDT 7:52 PM EDT
Civil Twilight 6:48 AM EDT 8:17 PM EDT
Nautical Twilight 6:19 AM EDT 8:47 PM EDT
Astronomical Twilight 5:48 AM EDT 9:17 PM EDT
Moon 4:47 PM EDT (9/8) 2:06 AM EDT (9/8)
Length of Visible Light 13h 28m
Length of Day
12h 38m
Waxing Gibbous, 75% of the Moon is Illuminated
Sep 8
Waxing Gibbous
Sep 14
Full
Sep 21
Last Quarter
Sep 28
New
Oct 5
First Quarter

Hourly Weather History & Observations

Time (EDT) Temp. Heat Index Dew Point Humidity Pressure Visibility Wind Dir Wind Speed Gust Speed Precip Events Conditions
12:56 AM 69.1 °F - 66.9 °F 93% 29.99 in 10.0 mi Calm Calm - N/A   Clear
1:56 AM 69.1 °F - 64.9 °F 87% 30.00 in 10.0 mi Calm Calm - N/A   Clear
2:56 AM 66.9 °F - 64.9 °F 93% 29.99 in 10.0 mi Calm Calm - N/A   Clear
3:56 AM 66.0 °F - 64.0 °F 93% 29.98 in 10.0 mi Calm Calm - N/A   Clear
4:56 AM 64.0 °F - 63.0 °F 96% 29.99 in 10.0 mi Calm Calm - N/A   Clear
5:56 AM 63.0 °F - 63.0 °F 100% 30.01 in 10.0 mi Calm Calm - N/A   Clear
6:56 AM 63.0 °F - 62.1 °F 97% 30.03 in 10.0 mi Calm Calm - N/A   Clear
7:56 AM 64.9 °F - 63.0 °F 93% 30.06 in 10.0 mi Calm Calm - N/A   Clear
8:56 AM 73.9 °F - 64.0 °F 71% 30.07 in 10.0 mi Calm Calm - N/A   Clear
9:56 AM 80.1 °F 81.2 °F 62.1 °F 54% 30.08 in 10.0 mi East 9.2 mph - N/A   Clear
10:56 AM 81.0 °F 82.2 °F 63.0 °F 54% 30.08 in 10.0 mi ENE 6.9 mph - N/A   Clear
11:56 AM 84.0 °F 85.4 °F 64.0 °F 51% 30.07 in 10.0 mi Variable 3.5 mph - N/A   Clear
12:56 PM 87.1 °F 87.8 °F 63.0 °F 44% - 10.0 mi Calm Calm - N/A   Clear
1:56 PM 90.0 °F 89.7 °F 60.1 °F 37% 30.04 in 10.0 mi SE 5.8 mph - N/A   Clear
2:56 PM 91.9 °F 91.5 °F 60.1 °F 34% 30.04 in 10.0 mi Variable 3.5 mph - N/A   Clear
3:56 PM 93.0 °F 91.7 °F 57.0 °F 30% 30.03 in 10.0 mi Variable 3.5 mph - N/A   Clear
4:56 PM 93.0 °F 92.0 °F 57.9 °F 31% 30.02 in 10.0 mi Variable 4.6 mph - N/A   Clear
5:56 PM 93.0 °F 93.0 °F 61.0 °F 34% 30.02 in 10.0 mi Variable 3.5 mph - N/A   Clear
6:56 PM 90.0 °F 90.3 °F 62.1 °F 39% 30.03 in 10.0 mi Calm Calm - N/A   Clear
7:56 PM 82.0 °F 83.1 °F 63.0 °F 52% 30.04 in 10.0 mi Calm Calm - N/A   Clear
8:56 PM 75.9 °F - 66.0 °F 71% 30.06 in 10.0 mi Calm Calm - N/A   Clear
9:56 PM 73.0 °F - 66.9 °F 81% 30.07 in 10.0 mi Calm Calm - N/A   Clear
10:56 PM 72.0 °F - 66.0 °F 81% 30.07 in 10.0 mi Calm Calm - N/A   Clear